Weather History for Clinton, MO

Change the Weather History Date:

Monday, July 22, 2013

  Actual Average (KSZL) Record (KSZL)
Temperature  
Mean Temperature 82 °F -  
Max Temperature 95 °F 87 °F 103 °F (2012)
Min Temperature 69 °F 68 °F 60 °F (2000)
Cooling Degree Days 17    
Growing Degree Days 32 (Base 50)    
Moisture  
Dew Point 70 °F    
Average Humidity 71    
Maximum Humidity 100    
Minimum Humidity 38    
Precipitation  
Precipitation 0.00 in - - ()
Sea Level Pressure  
Sea Level Pressure 29.85 in    
Wind  
Wind Speed 4 mph (SSW)    
Max Wind Speed 16 mph    
Max Gust Speed 22 mph    
Visibility 9 miles    
Events      
Averages and records for this station are not official NWS values.
T = Trace of Precipitation, MM = Missing Value Source: NWS Daily Summary

Daily Weather History Graph

Daily Weather History Graph

Search for Another Location

Airport:

Trip Planner

Search our weather history database for the weather conditions in past years. The results will help you decide how hot, cold, wet, or windy it might be!

Date:

Astronomy

Jul. 22, 2013 Rise Set
Actual Time 6:08 AM CDT 8:33 PM CDT
Civil Twilight 5:38 AM CDT 9:03 PM CDT
Nautical Twilight 5:01 AM CDT 9:40 PM CDT
Astronomical Twilight 4:19 AM CDT 10:21 PM CDT
Moon 8:21 PM CDT (7/22) 6:05 AM CDT (7/22)
Length of Visible Light 15h 24m
Length of Day
14h 24m
Full, 100% of the Moon is Illuminated
Jul 22
Full
Jul 22
Full
Jul 29
Last Quarter
Aug 6
New
Aug 14
First Quarter

Hourly Weather History & Observations

Time (CDT) Temp. Heat Index Dew Point Humidity Pressure Visibility Wind Dir Wind Speed Gust Speed Precip Events Conditions
12:15 AM 73.4 °F - 71.6 °F 94% 29.87 in 10.0 mi Calm Calm - N/A   Clear
12:35 AM 73.4 °F - 71.6 °F 94% 29.87 in 10.0 mi Calm Calm - N/A   Clear
12:55 AM 73.4 °F - 71.6 °F 94% 29.87 in 10.0 mi Calm Calm - N/A   Clear
1:15 AM 73.4 °F - 71.6 °F 94% 29.87 in 10.0 mi Calm Calm - N/A   Clear
1:35 AM 71.6 °F - 71.6 °F 100% 29.87 in 9.0 mi Calm Calm - N/A   Clear
1:55 AM 71.6 °F - 71.6 °F 100% 29.87 in 8.0 mi Calm Calm - N/A   Clear
2:15 AM 69.8 °F - 69.8 °F 100% 29.87 in 5.0 mi Calm Calm - N/A   Clear
2:35 AM 69.8 °F - 69.8 °F 100% 29.86 in 7.0 mi Calm Calm - N/A   Clear
2:55 AM 69.8 °F - 69.8 °F 100% 29.85 in 6.0 mi Calm Calm - N/A   Clear
3:15 AM 69.8 °F - 69.8 °F 100% 29.84 in 5.0 mi Calm Calm - N/A   Clear
3:35 AM 69.8 °F - 69.8 °F 100% 29.84 in 5.0 mi Calm Calm - N/A   Clear
3:55 AM 69.8 °F - 69.8 °F 100% 29.84 in 4.0 mi South 4.6 mph - N/A   Clear
4:15 AM 71.6 °F - 71.6 °F 100% 29.84 in 4.0 mi South 6.9 mph - N/A   Clear
4:35 AM 71.6 °F - 71.6 °F 100% 29.84 in 5.0 mi South 4.6 mph - N/A   Clear
4:55 AM 71.6 °F - 71.6 °F 100% 29.83 in 5.0 mi Calm Calm - N/A   Clear
5:15 AM 71.6 °F - 71.6 °F 100% 29.84 in 5.0 mi Calm Calm - N/A   Clear
5:35 AM 71.6 °F - 71.6 °F 100% 29.85 in 4.0 mi Calm Calm - N/A   Partly Cloudy
5:55 AM 71.6 °F - 71.6 °F 100% 29.85 in 5.0 mi South 4.6 mph - N/A   Partly Cloudy
6:15 AM 73.4 °F - 73.4 °F 100% 29.85 in 5.0 mi Calm Calm - N/A   Mostly Cloudy
6:35 AM 73.4 °F - 73.4 °F 100% 29.86 in 5.0 mi SSW 3.5 mph - N/A   Mostly Cloudy
6:55 AM 73.4 °F - 73.4 °F 100% 29.86 in 5.0 mi Calm Calm - N/A   Mostly Cloudy
7:15 AM 73.4 °F - 73.4 °F 100% 29.85 in 5.0 mi Calm Calm - N/A   Mostly Cloudy
7:35 AM 73.4 °F - 73.4 °F 100% 29.85 in 7.0 mi Calm Calm - N/A   Scattered Clouds
7:55 AM 75.2 °F - 71.6 °F 89% 29.85 in 9.0 mi Calm Calm - N/A   Partly Cloudy
8:15 AM 77.0 °F - 71.6 °F 83% 29.86 in 9.0 mi Calm Calm - N/A   Clear
8:35 AM 78.8 °F - 71.6 °F 78% 29.86 in 9.0 mi Calm Calm - N/A   Clear
8:55 AM 80.6 °F 84.6 °F 71.6 °F 74% 29.86 in 10.0 mi SSW 3.5 mph - N/A   Clear
9:55 AM 82.4 °F 86.3 °F 69.8 °F 66% 29.88 in 10.0 mi South 5.8 mph - N/A   Clear
10:15 AM 82.4 °F 85.4 °F 68.0 °F 62% 29.88 in 10.0 mi SSW 11.5 mph - N/A   Clear
10:35 AM 84.2 °F 87.3 °F 68.0 °F 58% 29.87 in 8.0 mi SSW 11.5 mph 17.3 mph N/A   Clear
10:55 AM 86.0 °F 90.4 °F 69.8 °F 58% 29.87 in 9.0 mi SSW 11.5 mph 18.4 mph N/A   Partly Cloudy
11:15 AM 86.0 °F 90.4 °F 69.8 °F 58% 29.87 in 10.0 mi SSW 8.1 mph - N/A   Clear
11:35 AM 87.8 °F 92.6 °F 69.8 °F 55% 29.87 in 10.0 mi SSW 8.1 mph - N/A   Clear
11:55 AM 89.6 °F 96.2 °F 71.6 °F 55% 29.87 in 10.0 mi SSW 10.4 mph - N/A   Clear
12:15 PM 89.6 °F 96.2 °F 71.6 °F 55% 29.87 in 10.0 mi SSW 10.4 mph - N/A   Clear
12:35 PM 89.6 °F 96.2 °F 71.6 °F 55% 29.88 in 10.0 mi SSW 10.4 mph 17.3 mph N/A   Clear
12:55 PM 89.6 °F 96.2 °F 71.6 °F 55% 29.88 in 10.0 mi SSW 12.7 mph 18.4 mph N/A   Partly Cloudy
1:15 PM 89.6 °F 94.7 °F 69.8 °F 52% 29.87 in 10.0 mi SW 10.4 mph 20.7 mph N/A   Scattered Clouds
1:35 PM 89.6 °F 96.2 °F 71.6 °F 55% 29.86 in 10.0 mi SSW 15.0 mph - N/A   Partly Cloudy
1:55 PM 91.4 °F 98.4 °F 71.6 °F 52% 29.85 in 10.0 mi SW 13.8 mph 19.6 mph N/A   Clear
2:15 PM 91.4 °F 98.4 °F 71.6 °F 52% 29.85 in 10.0 mi SW 15.0 mph 19.6 mph N/A   Partly Cloudy
2:35 PM 91.4 °F 98.4 °F 71.6 °F 52% 29.85 in 10.0 mi SW 12.7 mph 18.4 mph N/A   Scattered Clouds
2:55 PM 93.2 °F 102.4 °F 73.4 °F 52% 29.84 in 10.0 mi WSW 15.0 mph 21.9 mph N/A   Mostly Cloudy
3:15 PM 91.4 °F 98.4 °F 71.6 °F 52% 29.84 in 10.0 mi SW 16.1 mph 21.9 mph N/A   Mostly Cloudy
3:35 PM 91.4 °F 100.1 °F 73.4 °F 55% 29.84 in 10.0 mi WSW 16.1 mph 21.9 mph N/A   Scattered Clouds
3:55 PM 91.4 °F 98.4 °F 71.6 °F 52% 29.84 in 10.0 mi WSW 15.0 mph 20.7 mph N/A   Clear
4:15 PM 91.4 °F 98.4 °F 71.6 °F 52% 29.82 in 10.0 mi WSW 13.8 mph - N/A   Clear
4:35 PM 93.2 °F 98.8 °F 69.8 °F 46% 29.82 in 10.0 mi West 11.5 mph 17.3 mph N/A   Clear
4:55 PM 95.0 °F 98.5 °F 66.2 °F 39% 29.82 in 10.0 mi WSW 10.4 mph - N/A   Clear
5:15 PM 91.4 °F 95.4 °F 68.0 °F 46% 29.82 in 8.0 mi SW 11.5 mph - N/A   Clear
5:35 PM 91.4 °F 96.8 °F 69.8 °F 49% 29.82 in 10.0 mi SSW 6.9 mph - N/A   Clear
5:55 PM 91.4 °F 94.0 °F 66.2 °F 43% 29.82 in 10.0 mi WSW 9.2 mph - N/A   Clear
6:15 PM 91.4 °F 92.1 °F 62.6 °F 38% 29.80 in 10.0 mi SW 11.5 mph 18.4 mph N/A   Clear
6:35 PM 91.4 °F 93.2 °F 64.4 °F 41% 29.80 in 10.0 mi SW 9.2 mph - N/A   Clear
6:55 PM 91.4 °F 94.0 °F 66.2 °F 43% 29.80 in 10.0 mi WSW 6.9 mph - N/A   Clear
7:15 PM 89.6 °F 91.1 °F 64.4 °F 43% 29.81 in 10.0 mi SW 10.4 mph - N/A   Clear
7:35 PM 89.6 °F 91.1 °F 64.4 °F 43% 29.81 in 10.0 mi SW 6.9 mph - N/A   Clear
7:55 PM 87.8 °F 89.4 °F 64.4 °F 46% 29.81 in 10.0 mi SW 8.1 mph - N/A   Clear
8:15 PM 87.8 °F 89.4 °F 64.4 °F 46% 29.81 in 10.0 mi SW 8.1 mph - N/A   Clear
8:35 PM 84.2 °F 85.6 °F 64.4 °F 51% 29.82 in 10.0 mi SSW 4.6 mph - N/A   Clear
8:55 PM 82.4 °F 84.6 °F 66.2 °F 58% 29.81 in 10.0 mi Calm Calm - N/A   Clear
9:15 PM 82.4 °F 83.9 °F 64.4 °F 54% 29.81 in 10.0 mi Calm Calm - N/A   Clear
9:35 PM 80.6 °F 82.7 °F 66.2 °F 61% 29.82 in 10.0 mi Calm Calm - N/A   Clear
9:55 PM 80.6 °F 82.7 °F 66.2 °F 61% 29.83 in 10.0 mi South 4.6 mph - N/A   Clear
10:15 PM 78.8 °F - 69.8 °F 74% 29.83 in 10.0 mi South 5.8 mph - N/A   Clear
10:35 PM 78.8 °F - 69.8 °F 74% 29.84 in 10.0 mi SSE 3.5 mph - N/A   Clear
10:55 PM 78.8 °F - 69.8 °F 74% 29.85 in 10.0 mi Calm Calm - N/A   Clear
11:15 PM 78.8 °F - 69.8 °F 74% 29.87 in 10.0 mi SSE 3.5 mph - N/A   Clear
11:35 PM 78.8 °F - 69.8 °F 74% 29.87 in 10.0 mi Calm Calm - N/A   Clear
11:55 PM 77.0 °F - 69.8 °F 78% 29.87 in 10.0 mi Calm Calm - N/A   Clear